H1 CPF 2 NER 2021 12 16 9 350 01 glonass105 H2 0705202 9105 32276 2021 12 16 0 0 0 2021 12 19 23 45 0 900 1 1 0 0 0 1 H9 10 0 59564 0.00000 0 -12139059.559 13581206.586 -17860649.448 10 0 59564 900.00000 0 -11439018.213 11356856.715 -19768747.802 10 0 59564 1800.00000 0 -10874874.622 8877414.294 -21292876.996 10 0 59564 2700.00000 0 -10484826.166 6200746.334 -22403288.239 10 0 59564 3600.00000 0 -10296349.815 3392059.972 -23078253.250 10 0 59564 4500.00000 0 -10324980.598 521428.400 -23304497.450 10 0 59564 5400.00000 0 -10573609.210 -2338886.368 -23077469.658 10 0 59564 6300.00000 0 -11032329.483 -5117203.366 -22401442.270 10 0 59564 7200.00000 0 -11678843.318 -7745170.261 -21289439.137 10 0 59564 8100.00000 0 -12479407.105 -10160374.515 -19762991.667 10 0 59564 9000.00000 0 -13390280.611 -12308709.284 -17851727.024 10 0 59564 9900.00000 0 -14359617.808 -14146395.121 -15592795.722 10 0 59564 10800.00000 0 -15329720.056 -15641572.904 -13030149.235 10 0 59564 11700.00000 0 -16239556.273 -16775401.295 -10213681.418 10 0 59564 12600.00000 0 -17027442.965 -17542612.882 -7198250.659 10 0 59564 13500.00000 0 -17633769.874 -17951506.216 -4042602.277 10 0 59564 14400.00000 0 -18003654.736 -18023374.993 -808213.009 10 0 59564 15300.00000 0 -18089413.561 -17791399.695 2441918.677 10 0 59564 16200.00000 0 -17852740.686 -17299050.091 5644511.586 10 0 59564 17100.00000 0 -17266505.373 -16598067.846 8737244.615 10 0 59564 18000.00000 0 -16316088.254 -15746116.336 11659977.863 10 0 59564 18900.00000 0 -15000200.835 -14804198.742 14355927.274 10 0 59564 19800.00000 0 -13331153.378 -13833954.972 16772769.380 10 0 59564 20700.00000 0 -11334560.154 -12894952.551 18863654.386 10 0 59564 21600.00000 0 -9048494.784 -12042086.354 20588108.296 10 0 59564 22500.00000 0 -6522131.467 -11323196.664 21912807.296 10 0 59564 23400.00000 0 -3813929.269 -10777005.308 22812210.462 10 0 59564 24300.00000 0 -989435.303 -10431455.617 23269039.902 10 0 59564 25200.00000 0 1881201.998 -10302524.651 23274600.509 10 0 59564 26100.00000 0 4725906.658 -10393556.077 22828934.487 10 0 59564 27000.00000 0 7473426.026 -10695140.298 21940808.903 10 0 59564 27900.00000 0 10056046.004 -11185545.652 20627537.390 10 0 59564 28800.00000 0 12412159.548 -11831681.754 18914639.984 10 0 59564 29700.00000 0 14488583.764 -12590554.120 16835347.823 10 0 59564 30600.00000 0 16242531.247 -13411149.012 14429962.018 10 0 59564 31500.00000 0 17643155.454 -14236669.719 11745078.630 10 0 59564 32400.00000 0 18672607.397 -15007030.949 8832693.932 10 0 59564 33300.00000 0 19326560.931 -15661507.239 5749206.391 10 0 59564 34200.00000 0 19614185.583 -16141424.725 2554333.815 10 0 59564 35100.00000 0 19557568.754 -16392783.600 -690034.243 10 0 59564 36000.00000 0 19190611.716 -16368701.179 -3921027.378 10 0 59564 36900.00000 0 18557445.723 -16031572.640 -7076005.971 10 0 59564 37800.00000 0 17710434.518 -15354858.011 -10093770.542 10 0 59564 38700.00000 0 16707846.836 -14324419.234 -12915745.701 10 0 59564 39600.00000 0 15611296.369 -12939349.737 -15487115.757 10 0 59564 40500.00000 0 14483056.540 -11212259.918 -17757890.035 10 0 59564 41400.00000 0 13383362.779 -9169004.537 -19683877.158 10 0 59564 42300.00000 0 12367815.728 -6847861.281 -21227549.132 10 0 59564 43200.00000 0 11484994.702 -4298192.677 -22358778.238 10 0 59564 44100.00000 0 10774382.081 -1578645.086 -23055432.035 10 0 59564 45000.00000 0 10264686.475 1245041.873 -23303814.390 10 0 59564 45900.00000 0 9972635.826 4102525.781 -23098943.363 10 0 59564 46800.00000 0 9902292.040 6921549.236 -22444659.793 10 0 59564 47700.00000 0 10044916.810 9630713.807 -21353563.623 10 0 59564 48600.00000 0 10379395.068 12162225.030 -19846778.340 10 0 59564 49500.00000 0 10873198.880 14454494.141 -17953547.206 10 0 59564 50400.00000 0 11483851.526 16454487.757 -15710668.448 10 0 59564 51300.00000 0 12160830.081 18119727.113 -13161779.856 10 0 59564 52200.00000 0 12847825.845 19419853.000 -10356506.440 10 0 59564 53100.00000 0 13485266.409 20337690.619 -7349487.938 10 0 59564 54000.00000 0 14012991.675 20869769.934 -4199305.586 10 0 59564 54900.00000 0 14372969.311 21026280.148 -967329.876 10 0 59564 55800.00000 0 14511933.271 20830461.153 2283487.030 10 0 59564 56700.00000 0 14383832.290 20317458.939 5489849.401 10 0 59564 57600.00000 0 13951983.454 19532694.832 8589361.123 10 0 59564 58500.00000 0 13190838.732 18529819.154 11521748.388 10 0 59564 59400.00000 0 12087289.162 17368337.427 14230037.135 10 0 59564 60300.00000 0 10641451.249 16111010.863 16661661.704 10 0 59564 61200.00000 0 8866902.447 14821141.975 18769482.875 10 0 59564 62100.00000 0 6790355.987 13559860.451 20512695.829 10 0 59564 63000.00000 0 4450788.930 12383523.667 21857611.159 10 0 59564 63900.00000 0 1898060.267 11341340.788 22778294.781 10 0 59564 64800.00000 0 -808923.138 10473319.260 23257055.777 10 0 59564 65700.00000 0 -3604416.507 9808618.535 23284774.126 10 0 59564 66600.00000 0 -6418331.433 9364378.396 22861063.369 10 0 59564 67500.00000 0 -9178911.764 9145069.277 21994266.325 10 0 59564 68400.00000 0 -11815481.145 9142390.145 20701284.806 10 0 59564 69300.00000 0 -14261149.636 9335716.849 19007247.238 10 0 59564 70200.00000 0 -16455368.739 9693081.129 16945020.744 10 0 59564 71100.00000 0 -18346230.494 10172638.596 14554576.913 10 0 59564 72000.00000 0 -19892416.698 10724563.940 11882223.032 10 0 59564 72900.00000 0 -21064718.675 11293293.919 8979712.887 10 0 59564 73800.00000 0 -21847065.556 11820024.290 5903253.423 10 0 59564 74700.00000 0 -22237019.011 12245356.195 2712425.637 10 0 59564 75600.00000 0 -22245714.384 12511981.112 -530960.309 10 0 59564 76500.00000 0 -21897250.932 12567291.646 -3764054.349 10 0 59564 77400.00000 0 -21227556.655 12365808.221 -6924177.664 10 0 59564 78300.00000 0 -20282775.027 11871319.133 -9950032.671 10 0 59564 79200.00000 0 -19117240.918 11058643.073 -12782888.758 10 0 59564 80100.00000 0 -17791130.169 9914938.754 -15367720.775 10 0 59564 81000.00000 0 -16367881.042 8440504.999 -17654278.294 10 0 59564 81900.00000 0 -14911495.386 6649035.676 -19598064.815 10 0 59564 82800.00000 0 -13483832.591 4567316.684 -21161207.683 10 0 59564 83700.00000 0 -12142009.777 2234375.317 -22313201.608 10 0 59564 84600.00000 0 -10936017.415 -299884.727 -23031510.956 10 0 59564 85500.00000 0 -9906650.721 -2976507.766 -23302018.598 10 0 59565 0.00000 0 -9083844.078 -5729695.523 -23119312.028 10 0 59565 900.00000 0 -8485478.527 -8489312.399 -22486800.252 10 0 59565 1800.00000 0 -8116714.049 -11183579.506 -21416658.671 10 0 59565 2700.00000 0 -7969873.720 -13741850.805 -19929601.839 10 0 59565 3600.00000 0 -8024886.189 -16097352.123 -18054487.770 10 0 59565 4500.00000 0 -8250267.567 -18189770.060 -15827760.758 10 0 59565 5400.00000 0 -8604601.329 -19967582.053 -13292743.017 10 0 59565 6300.00000 0 -9038453.370 -21390029.715 -10498788.643 10 0 59565 7200.00000 0 -9496640.532 -22428652.315 -7500316.524 10 0 59565 8100.00000 0 -9920755.599 -23068315.903 -4355741.528 10 0 59565 9000.00000 0 -10251840.503 -23307694.995 -1126325.546 10 0 59565 9900.00000 0 -10433093.071 -23159187.001 2125027.961 10 0 59565 10800.00000 0 -10412491.087 -22648263.989 5335011.194 10 0 59565 11700.00000 0 -10145221.092 -21812290.371 8441155.539 10 0 59565 12600.00000 0 -9595807.916 -20698857.907 11383055.839 10 0 59565 13500.00000 0 -8739853.909 -19363709.920 14103550.582 10 0 59565 14400.00000 0 -7565313.851 -17868343.768 16549834.411 10 0 59565 15300.00000 0 -6073251.512 -16277393.919 18674481.028 10 0 59565 16200.00000 0 -4278046.047 -14655906.714 20436356.935 10 0 59565 17100.00000 0 -2207039.681 -13066621.703 21801408.969 10 0 59565 18000.00000 0 100358.267 -11567373.605 22743311.408 10 0 59565 18900.00000 0 2594073.448 -10208723.016 23243961.454 10 0 59565 19800.00000 0 5215216.212 -9031913.861 23293814.946 10 0 59565 20700.00000 0 7898302.218 -8067241.454 22892057.177 10 0 59565 21600.00000 0 10573752.233 -7332897.520 22046606.784 10 0 59565 22500.00000 0 13170568.282 -6834338.556 20773953.517 10 0 59565 23400.00000 0 15619076.146 -6564202.195 19098833.639 10 0 59565 24300.00000 0 17853621.862 -6502773.486 17053749.406 10 0 59565 25200.00000 0 19815111.760 -6618980.471 14678341.711 10 0 59565 26100.00000 0 21453291.906 -6871876.554 12018627.557 10 0 59565 27000.00000 0 22728673.561 -7212547.194 9126116.372 10 0 59565 27900.00000 0 23614025.591 -7586360.798 6056821.335 10 0 59565 28800.00000 0 24095372.394 -7935469.474 2870184.031 10 0 59565 29700.00000 0 24172456.229 -8201454.743 -372067.671 10 0 59565 30600.00000 0 23858644.769 -8328007.065 -3607107.184 10 0 59565 31500.00000 0 23180287.636 -8263526.449 -6772219.724 10 0 59565 32400.00000 0 22175548.472 -7963534.381 -9806012.854 10 0 59565 33300.00000 0 20892760.962 -7392794.868 -12649603.876 10 0 59565 34200.00000 0 19388377.054 -6527054.359 -15247761.135 10 0 59565 35100.00000 0 17724592.758 -5354325.908 -17549977.157 10 0 59565 36000.00000 0 15966750.408 -3875661.807 -19511452.753 10 0 59565 36900.00000 0 14180625.815 -2105380.201 -21093972.741 10 0 59565 37800.00000 0 12429713.616 -70733.873 -22266656.061 10 0 59565 38700.00000 0 10772624.378 2188967.318 -23006565.338 10 0 59565 39600.00000 0 9260702.507 4623745.893 -23299163.521 10 0 59565 40500.00000 0 7935964.908 7174802.172 -23138608.137 10 0 59565 41400.00000 0 6829447.010 9776740.448 -22527876.679 10 0 59565 42300.00000 0 5960025.876 12360084.287 -21478719.846 10 0 59565 43200.00000 0 5333770.048 14853976.982 -20011442.672 10 0 59565 44100.00000 0 4943843.649 17188954.889 -18154516.924 10 0 59565 45000.00000 0 4770968.858 19299677.736 -15944031.562 10 0 59565 45900.00000 0 4784427.025 21127501.502 -13422991.436 10 0 59565 46800.00000 0 4943555.757 22622785.613 -10640477.555 10 0 59565 47700.00000 0 5199677.904 23746837.111 -7650685.444 10 0 59565 48600.00000 0 5498379.761 24473409.727 -4511860.774 10 0 59565 49500.00000 0 5782040.667 24789694.605 -1285153.769 10 0 59565 50400.00000 0 5992505.278 24696761.056 1966584.061 10 0 59565 51300.00000 0 6073783.646 24209429.296 5180036.152 10 0 59565 52200.00000 0 5974663.111 23355581.417 8292664.681 10 0 59565 53100.00000 0 5651119.979 22174940.860 11243936.303 10 0 59565 54000.00000 0 5068427.801 20717373.263 13976505.029 10 0 59565 54900.00000 0 4202872.336 19040781.709 16437328.528 10 0 59565 55800.00000 0 3043000.389 17208686.330 18578695.870 10 0 59565 56700.00000 0 1590349.781 15287591.039 20359147.008 10 0 59565 57600.00000 0 -140370.170 13344248.522 21744266.839 10 0 59565 58500.00000 0 -2121654.971 11442938.257 22707339.451 10 0 59565 59400.00000 0 -4314122.147 9642870.979 23229851.237 10 0 59565 60300.00000 0 -6667930.938 7995827.017 23301834.550 10 0 59565 61200.00000 0 -9124645.378 6544125.691 22922046.642 10 0 59565 62100.00000 0 -11619463.621 5319008.624 22097981.694 10 0 59565 63000.00000 0 -14083721.583 4339502.362 20845716.613 10 0 59565 63900.00000 0 -16447567.735 3611805.802 19189594.221 10 0 59565 64800.00000 0 -18642699.178 3129226.042 17161750.151 10 0 59565 65700.00000 0 -20605046.651 2872663.758 14801492.414 10 0 59565 66600.00000 0 -22277298.102 2811626.612 12154545.193 10 0 59565 67500.00000 0 -23611157.094 2905727.396 9272170.747 10 0 59565 68400.00000 0 -24569243.011 3106603.664 6210185.516 10 0 59565 69300.00000 0 -25126554.544 3360178.149 3027888.610 10 0 59565 70200.00000 0 -25271435.813 3609165.027 -213077.478 10 0 59565 71100.00000 0 -25006004.823 3795716.701 -3449912.672 10 0 59565 72000.00000 0 -24346026.078 3864099.794 -6619869.213 10 0 59565 72900.00000 0 -23320232.207 3763287.509 -9661462.703 10 0 59565 73800.00000 0 -21969122.249 3449358.756 -12515661.145 10 0 59565 74700.00000 0 -20343286.125 2887602.287 -15127028.999 10 0 59565 75600.00000 0 -18501324.581 2054236.096 -17444804.138 10 0 59565 76500.00000 0 -16507450.818 937668.235 -19423886.767 10 0 59565 77400.00000 0 -14428873.500 -460755.760 -21025720.864 10 0 59565 78300.00000 0 -12333070.001 -2126552.391 -22219050.838 10 0 59565 79200.00000 0 -10285063.500 -4032457.343 -22980538.317 10 0 59565 80100.00000 0 -8344817.576 -6139327.623 -23295226.566 10 0 59565 81000.00000 0 -6564857.167 -8397553.118 -23156842.933 10 0 59565 81900.00000 0 -4988215.418 -10748920.618 -22567932.661 10 0 59565 82800.00000 0 -3646792.542 -13128853.900 -21539820.631 10 0 59565 83700.00000 0 -2560195.561 -15468937.472 -20092400.902 10 0 59565 84600.00000 0 -1735107.650 -17699619.190 -18253757.236 10 0 59565 85500.00000 0 -1165213.541 -19752978.830 -16059621.275 10 0 59566 0.00000 0 -831683.867 -21565446.410 -13552678.586 10 0 59566 900.00000 0 -704197.318 -23080356.718 -10781734.372 10 0 59566 1800.00000 0 -742457.096 -24250229.771 -7800758.694 10 0 59566 2700.00000 0 -898135.770 -25038683.921 -4667825.688 10 0 59566 3600.00000 0 -1117165.357 -25421898.099 -1443971.592 10 0 59566 4500.00000 0 -1342273.796 -25389562.300 1808006.325 10 0 59566 5400.00000 0 -1515658.651 -24945276.197 5024785.011 10 0 59566 6300.00000 0 -1581683.012 -24106379.507 8143759.681 10 0 59566 7200.00000 0 -1489477.859 -22903222.106 11104271.041 10 0 59566 8100.00000 0 -1195339.368 -21377905.786 13848790.806 10 0 59566 9000.00000 0 -664818.812 -19582551.864 16324041.781 10 0 59566 9900.00000 0 125583.790 -17577168.820 18482030.372 10 0 59566 10800.00000 0 1187193.931 -15427210.578 20280971.755 10 0 59566 11700.00000 0 2518456.353 -13200928.544 21686090.403 10 0 59566 12600.00000 0 4104777.632 -10966628.585 22670281.430 10 0 59566 13500.00000 0 5918923.946 -8789947.336 23214621.318 10 0 59566 14400.00000 0 7921957.165 -6731260.652 23308719.499 10 0 59566 15300.00000 0 10064670.055 -4843331.043 22950905.433 10 0 59566 16200.00000 0 12289460.964 -3169290.287 22148248.793 10 0 59566 17100.00000 0 14532570.396 -1741039.203 20916413.325 10 0 59566 18000.00000 0 16726587.099 -578129.184 19279347.840 10 0 59566 18900.00000 0 18803120.387 312830.072 17268820.532 10 0 59566 19800.00000 0 20695528.725 938213.828 14923805.462 10 0 59566 20700.00000 0 22341592.081 1316876.293 12289732.662 10 0 59566 21600.00000 0 23686017.950 1479117.761 9417615.599 10 0 59566 22500.00000 0 24682677.525 1465168.943 6363072.041 10 0 59566 23400.00000 0 25296479.364 1323256.481 3185256.378 10 0 59566 24300.00000 0 25504802.724 1107331.088 -54276.796 10 0 59566 25200.00000 0 25298430.641 874553.779 -3292756.684 10 0 59566 26100.00000 0 24681943.393 682645.947 -6467405.461 10 0 59566 27000.00000 0 23673555.278 587214.854 -9516649.720 10 0 59566 27900.00000 0 22304400.615 639167.441 -12381311.069 10 0 59566 28800.00000 0 20617297.852 882321.855 -15005752.849 10 0 59566 29700.00000 0 18665042.348 1351318.105 -17338960.854 10 0 59566 30600.00000 0 16508298.115 2069917.034 -19335537.033 10 0 59566 31500.00000 0 14213175.675 3049760.625 -20956586.640 10 0 59566 32400.00000 0 11848596.332 4289647.666 -22170481.416 10 0 59566 33300.00000 0 9483552.229 5775357.236 -22953483.593 10 0 59566 34200.00000 0 7184376.141 7480029.615 -23290218.067 10 0 59566 35100.00000 0 5012134.673 9365090.837 -23173982.990 10 0 59566 36000.00000 0 3020253.550 11381684.224 -22606891.963 10 0 59566 36900.00000 0 1252474.274 13472550.669 -21599844.251 10 0 59566 37800.00000 0 -258772.421 15574280.342 -20172322.691 10 0 59566 38700.00000 0 -1493508.224 17619842.449 -18352022.355 10 0 59566 39600.00000 0 -2444816.171 19541287.413 -16174316.430 10 0 59566 40500.00000 0 -3118891.619 21272508.156 -13681569.157 10 0 59566 41400.00000 0 -3534533.628 22751944.126 -10922308.880 10 0 59566 42300.00000 0 -3722099.001 23925113.726 -7950277.426 10 0 59566 43200.00000 0 -3721964.301 24746867.755 -4823374.752 10 0 59566 44100.00000 0 -3582562.268 25183268.187 -1602520.198 10 0 59566 45000.00000 0 -3358077.394 25213012.445 1649546.309 10 0 59566 45900.00000 0 -3105900.043 24828342.798 4869498.449 10 0 59566 46800.00000 0 -2883948.798 24035402.539 7994667.719 10 0 59566 47700.00000 0 -2747976.158 22854024.371 10964272.065 10 0 59566 48600.00000 0 -2748973.141 21316960.666 13720603.990 10 0 59566 49500.00000 0 -2930783.729 19468588.965 16210154.331 10 0 59566 50400.00000 0 -3328030.675 17363148.278 18384649.510 10 0 59566 51300.00000 0 -3964440.548 15062581.222 20201982.339 10 0 59566 52200.00000 0 -4851638.540 12634073.171 21627018.986 10 0 59566 53100.00000 0 -5988463.410 10147391.848 22632267.384 10 0 59566 54000.00000 0 -7360830.908 7672138.346 23198395.509 10 0 59566 54900.00000 0 -8942150.965 5275023.591 23314590.863 10 0 59566 55800.00000 0 -10694280.846 3017282.619 22978755.638 10 0 59566 56700.00000 0 -12568974.379 952332.650 22197535.022 10 0 59566 57600.00000 0 -14509766.966 -876229.595 20986179.090 10 0 59566 58500.00000 0 -16454218.242 -2436210.094 19368241.588 10 0 59566 59400.00000 0 -18336419.670 -3707915.640 17375121.693 10 0 59566 60300.00000 0 -20089663.525 -4684724.224 15045457.465 10 0 59566 61200.00000 0 -21649163.050 -5373105.692 12424382.298 10 0 59566 62100.00000 0 -22954711.341 -5792093.343 9562658.048 10 0 59566 63000.00000 0 -23953168.968 -5972229.681 6515700.736 10 0 59566 63900.00000 0 -24600676.994 -5954031.187 3342516.808 10 0 59566 64800.00000 0 -24864503.349 -5786036.908 104569.641 10 0 59566 65700.00000 0 -24724445.241 -5522522.977 -3135402.565 10 0 59566 66600.00000 0 -24173728.586 -5220979.140 -6314595.210 10 0 59566 67500.00000 0 -23219366.057 -4939453.470 -9371349.106 10 0 59566 68400.00000 0 -21881957.735 -4733877.151 -12246342.567 10 0 59566 69300.00000 0 -20194941.491 -4655482.227 -14883740.754 10 0 59566 70200.00000 0 -18203323.092 -4748421.631 -17232280.073 10 0 59566 71100.00000 0 -15961937.708 -5047692.519 -19246266.570 10 0 59566 72000.00000 0 -13533314.175 -5577451.480 -20886468.698 10 0 59566 72900.00000 0 -10985229.963 -6349793.977 -22120886.932 10 0 59566 73800.00000 0 -8388057.821 -7364051.070 -22925384.933 10 0 59566 74700.00000 0 -5812014.046 -8606634.883 -23284169.447 10 0 59566 75600.00000 0 -3324422.522 -10051441.320 -23190109.065 10 0 59566 76500.00000 0 -987108.229 -11660795.105 -22644884.855 10 0 59566 77400.00000 0 1145971.096 -13386899.254 -21658969.105 10 0 59566 78300.00000 0 3030756.386 -15173729.663 -20251431.690 10 0 59566 79200.00000 0 4634696.847 -16959296.394 -18449576.938 10 0 59566 80100.00000 0 5937870.410 -18678177.324 -16288417.287 10 0 59566 81000.00000 0 6933568.258 -20264217.823 -13809993.419 10 0 59566 81900.00000 0 7628319.356 -21653282.679 -11062553.761 10 0 59566 82800.00000 0 8041354.637 -22785943.733 -8099609.442 10 0 59566 83700.00000 0 8203534.479 -23609989.111 -4978883.534 10 0 59566 84600.00000 0 8155786.167 -24082647.316 -1761175.773 10 0 59566 85500.00000 0 7947118.959 -24172431.399 1490833.908 10 0 59567 0.00000 0 7632302.659 -23860524.788 4713818.191 10 0 59567 900.00000 0 7269309.650 -23141649.644 7845047.898 10 0 59567 1800.00000 0 6916630.988 -22024381.654 10823620.230 10 0 59567 2700.00000 0 6630581.207 -20530897.787 13591650.612 10 0 59567 3600.00000 0 6462707.565 -18696168.598 16095399.833 10 0 59567 4500.00000 0 6457413.937 -16566629.828 18286316.005 10 0 59567 5400.00000 0 6649900.125 -14198389.921 20121970.971 10 0 59567 6300.00000 0 7064503.439 -11655049.274 21566873.664 10 0 59567 7200.00000 0 7713511.999 -9005222.928 22593145.567 10 0 59567 8100.00000 0 8596499.041 -6319870.154 23181046.542 10 0 59567 9000.00000 0 9700205.490 -3669541.761 23319342.220 10 0 59567 9900.00000 0 10998975.074 -1121658.857 23005507.270 10 0 59567 10800.00000 0 12455723.346 1262065.244 22245761.872 10 0 59567 11700.00000 0 14023399.932 3427954.628 21054941.669 10 0 59567 12600.00000 0 15646883.048 5332357.062 19456204.387 10 0 59567 13500.00000 0 17265227.621 6943206.634 17480579.054 10 0 59567 14400.00000 0 18814173.880 8241099.850 15166366.425 10 0 59567 15300.00000 0 20228812.504 9219842.326 12558401.783 10 0 59567 16200.00000 0 21446295.917 9886444.954 9707193.726 10 0 59567 17100.00000 0 22408483.282 10260571.074 6667954.682 10 0 59567 18000.00000 0 23064409.202 10373458.652 3499541.099 10 0 59567 18900.00000 0 23372473.209 10266363.249 263322.908 10 0 59567 19800.00000 0 23302258.417 9988587.381 -2977996.689 10 0 59567 20700.00000 0 22835902.762 9595179.109 -6161588.797 10 0 59567 21600.00000 0 21968964.677 9144396.578 -9225710.951 10 0 59567 22500.00000 0 20710745.823 8695045.166 -12110900.632 10 0 59567 23400.00000 0 19084055.995 8303799.374 -14761127.162 10 0 59567 24300.00000 0 17124428.488 8022622.462 -17124879.748 10 0 59567 25200.00000 0 14878817.026 7896392.970 -19156170.547 10 0 59567 26100.00000 0 12403827.114 7960838.789 -20815433.040 10 0 59567 27000.00000 0 9763554.047 8240866.792 -22070298.099 10 0 59567 27900.00000 0 7027116.378 8749359.639 -22896232.287 10 0 59567 28800.00000 0 4265986.599 9486491.873 -23277025.474 10 0 59567 29700.00000 0 1551229.360 10439595.771 -23205117.708 10 0 59567 30600.00000 0 -1049238.318 11583584.325 -22681758.222 10 0 59567 31500.00000 0 -3473250.900 12881915.207 -21716992.649 10 0 59567 32400.00000 0 -5666753.892 14288056.666 -20329477.802 10 0 59567 33300.00000 0 -7585820.638 15747394.878 -18546126.710 10 0 59567 34200.00000 0 -9198241.995 17199503.209 -16401590.072 10 0 59567 35100.00000 0 -10484622.482 18580678.186 -13937583.596 10 0 59567 36000.00000 0 -11438937.212 19826635.171 -11202074.012 10 0 59567 36900.00000 0 -12068526.684 20875249.491 -8248339.663 10 0 59567 37800.00000 0 -12393530.579 21669226.485 -5133924.370 10 0 59567 38700.00000 0 -12445785.603 22158586.701 -1919505.712 10 0 59567 39600.00000 0 -12267235.438 22302860.134 1332299.096 10 0 59567 40500.00000 0 -11907921.766 22072895.886 4558165.154 10 0 59567 41400.00000 0 -11423643.277 21452210.047 7695304.350 10 0 59567 42300.00000 0 -10873383.570 20437814.561 10682696.672 10 0 59567 43200.00000 0 -10316618.553 19040492.045 13462283.381 10 0 59567 44100.00000 0 -9810618.641 17284505.330 15980098.076 10 0 59567 45000.00000 0 -9407860.781 15206754.463 18187313.282 10 0 59567 45900.00000 0 -9153660.116 12855417.278 20041182.423 10 0 59567 46800.00000 0 -9084121.189 10288131.074 21505859.513 10 0 59567 47700.00000 0 -9224494.576 7569791.956 22553081.617 10 0 59567 48600.00000 0 -9588007.332 4770063.817 23162702.162 10 0 59567 49500.00000 0 -10175215.445 1960700.437 23323066.196 10 0 59567 50400.00000 0 -10973904.504 -787208.540 23031221.704 10 0 59567 51300.00000 0 -11959541.909 -3405954.516 22292964.206 10 0 59567 52200.00000 0 -13096261.082 -5833778.538 21122714.747 10 0 59567 53100.00000 0 -14338336.219 -8017186.694 19543234.334 10 0 59567 54000.00000 0 -15632085.936 -9912918.310 17585180.634 10 0 59567 54900.00000 0 -16918126.620 -11489487.227 15286515.387 10 0 59567 55800.00000 0 -18133881.784 -12728233.967 12691773.635 10 0 59567 56700.00000 0 -19216243.243 -13623846.770 9851208.196 10 0 59567 57600.00000 0 -20104273.460 -14184331.208 6819825.098 10 0 59567 58500.00000 0 -20741836.533 -14430430.679 3656327.762 10 0 59567 59400.00000 0 -21080047.995 -14394522.780 421989.485 10 0 59567 60300.00000 0 -21079440.846 -14119038.187 -2820524.805 10 0 59567 61200.00000 0 -20711756.665 -13654468.487 -6008365.264 10 0 59567 62100.00000 0 -19961286.048 -13057046.597 -9079709.497 10 0 59567 63000.00000 0 -18825701.034 -12386197.171 -11974957.465 10 0 59567 63900.00000 0 -17316343.249 -11701864.089 -14637885.863 10 0 59567 64800.00000 0 -15457954.011 -11061827.526 -17016739.722 10 0 59567 65700.00000 0 -13287855.785 -10519123.626 -19065240.043 10 0 59567 66600.00000 0 -10854617.339 -10119675.826 -20743487.673 10 0 59567 67500.00000 0 -8216256.469 -9900238.073 -22018745.712 10 0 59567 68400.00000 0 -5438053.485 -9886737.430 -22866084.875 10 0 59567 69300.00000 0 -2590065.208 -10093086.858 -23268878.784 10 0 59567 70200.00000 0 255558.215 -10520519.431 -23219138.944 10 0 59567 71100.00000 0 3027342.837 -11157473.381 -22717682.187 10 0 59567 72000.00000 0 5657231.908 -11980034.180 -21774126.408 10 0 59567 72900.00000 0 8083184.436 -12952916.370 -20406713.835 10 0 59567 73800.00000 0 10251523.058 -14030944.840 -18641964.310 10 0 59567 74700.00000 0 12118933.010 -15160973.886 -16514164.571 10 0 59567 75600.00000 0 13654028.645 -16284163.501 -14064702.866 10 0 59567 76500.00000 0 14838421.922 -17338516.760 -11341261.488 10 0 59567 77400.00000 0 15667248.262 -18261570.663 -8396883.040 10 0 59567 78300.00000 0 16149128.305 -18993125.873 -5288928.990 10 0 59567 79200.00000 0 16305568.121 -19477898.864 -2077951.545 10 0 59567 80100.00000 0 16169824.442 -19667983.097 1173498.028 10 0 59567 81000.00000 0 15785284.472 -19525013.956 4402100.127 10 0 59567 81900.00000 0 15203430.549 -19021944.919 7545011.298 10 0 59567 82800.00000 0 14481477.609 -18144359.199 10541096.800 10 0 59567 83700.00000 0 13679785.133 -16891261.101 13332126.206 10 0 59567 84600.00000 0 12859154.559 -15275313.680 15863908.049 10 0 59567 85500.00000 0 12078127.472 -13322512.993 18087341.011 99